Change the Weather History Date:

Sunday, October 21, 2012

  Actual Average Record
Temperature  
Mean Temperature 72 °F 62 °F  
Max Temperature 82 °F 73 °F 90 °F (2003)
Min Temperature 61 °F 51 °F 32 °F (1952)
Degree Days  
Heating Degree Days 0 5  
Month to date heating degree days 75 60  
Since 1 July heating degree days 76 71  
Cooling Degree Days 7 2  
Month to date cooling degree days 34 67  
Year to date cooling degree days 2690 2180  
Growing Degree Days 20 (Base 50)    
Moisture  
Dew Point 59 °F    
Average Humidity 72    
Maximum Humidity 84    
Minimum Humidity 60    
Precipitation  
Precipitation 0.00 in 0.17 in 2.33 in (1996)
Month to date precipitation 2.20 3.24  
Year to date precipitation 35.58 37.83  
Snow  
Snow 0.00 in 0.00 in - ()
Month to date snowfall 0.0 0.0  
Since 1 July snowfall 0.0 0.0  
Since 1 September snowfall 0.0 0.0  
Snow Depth 0.00 in    
Sea Level Pressure  
Sea Level Pressure 29.97 in    
Wind  
Wind Speed 6 mph (South)    
Max Wind Speed 18 mph    
Max Gust Speed 23 mph    
Visibility 10 miles    
Events      
T = Trace of Precipitation, MM = Missing Value Source: NWS Daily Summary

Daily Weather History Graph

Daily Weather History Graph

Search for Another Location

Airport or City:

Trip Planner

Search our weather history database for the weather conditions in past years. The results will help you decide how hot, cold, wet, or windy it might be!

Date:

Astronomy

Oct. 21, 2012 Rise Set
Actual Time 7:20 AM CDT 6:26 PM CDT
Civil Twilight 6:54 AM CDT 6:51 PM CDT
Nautical Twilight 6:25 AM CDT 7:21 PM CDT
Astronomical Twilight 5:55 AM CDT 7:50 PM CDT
Moon 1:36 PM CDT (10/21) No Moon Set
Length of Visible Light 11h 57m
Length of Day
11h 06m
Waxing Crescent, 45% of the Moon is Illuminated
Oct 21
Waxing Crescent
Oct 21
First Quarter
Oct 29
Full
Nov 6
Last Quarter
Nov 13
New

Hourly Weather History & Observations

Time (CDT) Temp. Heat Index Dew Point Humidity Pressure Visibility Wind Dir Wind Speed Gust Speed Precip Events Conditions
12:53 AM 57.9 °F - 50.0 °F 75% 29.95 in 10.0 mi ENE 3.5 mph - N/A   Mostly Cloudy
1:53 AM 57.0 °F - 48.9 °F 74% 29.94 in 10.0 mi South 3.5 mph - N/A   Scattered Clouds
2:53 AM 59.0 °F - 50.0 °F 72% 29.94 in 10.0 mi South 5.8 mph - N/A   Partly Cloudy
3:53 AM 59.0 °F - 50.0 °F 72% 29.94 in 10.0 mi South 6.9 mph - N/A   Scattered Clouds
4:53 AM 59.0 °F - 51.1 °F 75% 29.94 in 10.0 mi South 4.6 mph - N/A   Scattered Clouds
5:53 AM 60.1 °F - 52.0 °F 75% 29.96 in 10.0 mi South 3.5 mph - N/A   Mostly Cloudy
6:53 AM 57.9 °F - 53.1 °F 84% 29.97 in 10.0 mi SSE 4.6 mph - N/A   Mostly Cloudy
7:12 AM 59.0 °F - 53.6 °F 82% 29.94 in 10.0 mi SSE 3.5 mph - N/A   Overcast
7:53 AM 60.1 °F - 54.0 °F 80% 30.01 in 10.0 mi SE 4.6 mph - N/A   Overcast
8:04 AM 60.8 °F - 55.4 °F 82% 29.97 in 10.0 mi SSE 3.5 mph - N/A   Mostly Cloudy
8:42 AM 62.6 °F - 55.4 °F 77% 29.98 in 10.0 mi SSE 4.6 mph - N/A   Overcast
8:53 AM 63.0 °F - 57.0 °F 81% 30.03 in 10.0 mi SSE 5.8 mph - N/A   Overcast
9:53 AM 69.1 °F - 59.0 °F 70% 30.04 in 10.0 mi South 8.1 mph - N/A   Overcast
10:25 AM 69.8 °F - 60.8 °F 73% 30.00 in 10.0 mi South 12.7 mph - N/A   Mostly Cloudy
10:53 AM 73.9 °F - 62.1 °F 66% 30.03 in 10.0 mi SSW 12.7 mph 19.6 mph N/A   Mostly Cloudy
11:53 AM 77.0 °F - 64.9 °F 66% 30.02 in 10.0 mi SW 10.4 mph 21.9 mph N/A   Mostly Cloudy
12:53 PM 80.1 °F 82.1 °F 66.0 °F 62% 30.00 in 10.0 mi WSW 18.4 mph 23.0 mph N/A   Mostly Cloudy
1:53 PM 81.0 °F 83.3 °F 66.9 °F 62% 29.98 in 10.0 mi SW 9.2 mph 19.6 mph N/A   Overcast
2:53 PM 82.0 °F 84.5 °F 66.9 °F 60% 29.94 in 10.0 mi SSW 10.4 mph - N/A   Overcast
3:53 PM 82.9 °F 85.8 °F 68.0 °F 60% 29.93 in 10.0 mi South 13.8 mph 20.7 mph N/A   Mostly Cloudy
4:53 PM 82.0 °F 84.9 °F 68.0 °F 62% 29.93 in 10.0 mi South 9.2 mph - N/A   Mostly Cloudy
5:53 PM 80.1 °F 82.3 °F 66.9 °F 64% 29.94 in 10.0 mi South 8.1 mph - N/A   Mostly Cloudy
6:53 PM 75.9 °F - 66.9 °F 74% 29.95 in 10.0 mi SSE 6.9 mph - N/A   Mostly Cloudy
7:53 PM 73.9 °F - 66.9 °F 79% 29.97 in 10.0 mi SSE 6.9 mph - N/A   Mostly Cloudy
8:53 PM 73.0 °F - 64.9 °F 76% 29.98 in 10.0 mi SSE 9.2 mph - N/A   Mostly Cloudy
9:53 PM 71.1 °F - 61.0 °F 70% 29.99 in 10.0 mi SSE 9.2 mph - N/A   Scattered Clouds
10:53 PM 68.0 °F - 59.0 °F 73% 29.99 in 10.0 mi SSE 5.8 mph - N/A   Partly Cloudy
11:53 PM 66.9 °F - 57.9 °F 73% 30.00 in 10.0 mi South 5.8 mph - N/A   Partly Cloudy